Flag for U.S.A. Weather past 2 weeks in Sioux Falls, South Dakota, U.S.A.

Now
31 °F

Overcast.


Feels Like: 18 °F
Forecast: 24 / 33 °F
Wind: 21 mph from Northwest

Location: Foss Field

Current Time: Jan 29, 2015 at 3:02:57 PM

Latest Report: Jan 29, 2015 at 1:56 PM


Visibility: 10 mi

Pressure: 30.46 "Hg

Humidity: 67%

Dew point: 21 °F

Location of Sioux FallsLocation

Historic Weather in Sioux Falls — Graph

°F

Sioux Falls temperature yesterday

Maximum temperature yesterday: 45 °F (at 2:56 PM)
Minimum temperature yesterday: 33 °F (at 6:56 AM)
Average temperature yesterday: 37 °F

Past Weeks' High & Low Weather Summary

 TemperatureHumidityPressure
High48 °F (Jan 26, 1:56 PM)100% (Jan 15, 11:56 PM)30.47 "Hg (Jan 15, 11:56 PM)
Low14 °F (Jan 16, 6:56 AM)44% (Jan 18, 1:56 PM)29.59 "Hg (Jan 24, 8:56 PM)
Average32 °F82%30.00 "Hg
* Reported Jan 14 1:56 PM — Jan 29 1:56 PM, Sioux Falls, Weather by CustomWeather, © 2014

Note: Actual official high and low records may vary slightly from our data, if they occured in-between our weather recording intervals... More about our weather records

Advertising

Sioux Falls weather history for previous 24 hours

 ConditionsComfort  
Time TempWeatherWind HumidityBarometerVisibility
1:56 PM
Jan 29
31 °FOvercast.21 mph67%30.46 "Hg10 mi
12:56 PM31 °FOvercast.21 mph76%30.46 "Hg10 mi
11:56 AM32 °FOvercast.18 mph69%30.46 "Hg10 mi
10:56 AM32 °FOvercast.20 mph69%30.44 "Hg10 mi
9:56 AM31 °FMostly cloudy.20 mph76%30.41 "Hg10 mi
8:56 AM31 °FMostly cloudy.21 mph79%30.37 "Hg10 mi
7:56 AM30 °FMore clouds than sun.21 mph79%30.34 "Hg10 mi
6:56 AM31 °FOvercast.22 mph76%30.30 "Hg10 mi
5:56 AM31 °FOvercast.25 mph79%30.26 "Hg10 mi
4:56 AM31 °FOvercast.24 mph79%30.22 "Hg10 mi
3:56 AM32 °FMostly cloudy.28 mph79%30.18 "Hg10 mi
2:56 AM33 °FOvercast.24 mph78%30.15 "Hg10 mi
1:56 AM32 °FLight freezing rain. Overcast.23 mph88%30.12 "Hg7 mi
12:56 AM34 °FOvercast.25 mph76%30.08 "Hg10 mi
11:56 PM
Jan 28
34 °FOvercast.23 mph82%30.05 "Hg10 mi
10:56 PM34 °FOvercast.26 mph85%30.02 "Hg10 mi
9:56 PM34 °FLow clouds.24 mph88%29.98 "Hg10 mi
8:56 PM38 °FOvercast.20 mph86%29.91 "Hg10 mi
7:56 PM36 °FOvercast.7 mph89%29.87 "Hg7 mi
6:56 PM36 °FOvercast.6 mph89%29.82 "Hg7 mi
5:56 PM36 °FPassing clouds.5 mph89%29.79 "Hg10 mi
4:56 PM43 °FBroken clouds.5 mph74%29.75 "Hg10 mi
3:56 PM45 °FScattered clouds.5 mph68%29.71 "Hg10 mi
Weather by CustomWeather, © 2014

See weather overviewHow to use our weather pages